Weather History for Oceanside, CA

Change the Weather History Date:

Friday, September 27, 2013

  Actual Average Record
Temperature  
Mean Temperature 63 °F 66 °F  
Max Temperature 79 °F 76 °F 105 °F (2010)
Min Temperature 47 °F 57 °F 47 °F (2013)
Degree Days  
Heating Degree Days 2 1  
Month to date heating degree days 5 4  
Since 1 July heating degree days 5 9  
Cooling Degree Days 0 2  
Month to date cooling degree days 112 88  
Year to date cooling degree days 513 388  
Growing Degree Days 13 (Base 50)    
Moisture  
Dew Point 46 °F    
Average Humidity 57    
Maximum Humidity 86    
Minimum Humidity 28    
Precipitation  
Precipitation 0.00 in 0.01 in 0.01 in (2006)
Month to date precipitation 0.00 0.22  
Year to date precipitation 2.33 9.76  
Since 1 July precipitation 0.01 0.49  
Snow  
Snow 0.00 in - - ()
Month to date snowfall 0.0  
Year to date snowfall 0.0  
Since 1 July snowfall 0.0  
Snow Depth 0.00 in    
Sea Level Pressure  
Sea Level Pressure 29.92 in    
Wind  
Wind Speed 4 mph (WNW)    
Max Wind Speed 17 mph    
Max Gust Speed 26 mph    
Visibility 10 miles    
Events      
T = Trace of Precipitation, MM = Missing Value Source: NWS Daily Summary

Daily Weather History Graph

Daily Weather History Graph

Search for Another Location

Airport:

Trip Planner

Search our weather history database for the weather conditions in past years. The results will help you decide how hot, cold, wet, or windy it might be!

Date:

Astronomy

Sep. 27, 2013 Rise Set
Actual Time 6:41 AM PDT 6:38 PM PDT
Civil Twilight 6:16 AM PDT 7:03 PM PDT
Nautical Twilight 5:47 AM PDT 7:32 PM PDT
Astronomical Twilight 5:18 AM PDT 8:01 PM PDT
Moon No Moon Rise 2:04 PM PDT (9/27)
Length of Visible Light 12h 47m
Length of Day
11h 57m
Last Quarter, 44% of the Moon is Illuminated
Sep 27
Last Quarter
Oct 4
New
Oct 11
First Quarter
Oct 18
Full
Oct 26
Last Quarter

Hourly Weather History & Observations

Time (PDT) Temp. Dew Point Humidity Pressure Visibility Wind Dir Wind Speed Gust Speed Precip Events Conditions
12:52 AM 51.1 °F 45.0 °F 80% 29.88 in 10.0 mi Calm Calm - N/A   Clear
1:52 AM 50.0 °F 44.1 °F 80% 29.89 in 10.0 mi Calm Calm - N/A   Clear
2:52 AM 50.0 °F 45.0 °F 83% 29.88 in 10.0 mi Calm Calm - N/A   Clear
3:52 AM 50.0 °F 44.1 °F 80% 29.88 in 10.0 mi Calm Calm - N/A   Clear
4:52 AM 48.9 °F 44.1 °F 83% 29.88 in 10.0 mi Calm Calm - N/A   Clear
5:52 AM 48.0 °F 43.0 °F 83% 29.91 in 10.0 mi Calm Calm - N/A   Clear
6:52 AM 48.0 °F 44.1 °F 86% 29.93 in 9.0 mi Calm Calm - N/A   Clear
7:52 AM 55.0 °F 46.0 °F 72% 29.95 in 10.0 mi NE 3.5 mph - N/A   Clear
8:52 AM 63.0 °F 46.0 °F 54% 29.95 in 10.0 mi ENE 4.6 mph - N/A   Clear
9:52 AM 72.0 °F 44.1 °F 37% 29.96 in 10.0 mi Calm Calm - N/A   Clear
10:52 AM 77.0 °F 41.0 °F 28% 29.95 in 10.0 mi Calm Calm - N/A   Clear
11:52 AM 78.1 °F 46.0 °F 32% 29.94 in 10.0 mi WSW 6.9 mph - N/A   Clear
12:52 PM 78.1 °F 45.0 °F 31% 29.93 in 10.0 mi West 9.2 mph - N/A   Clear
1:52 PM 75.0 °F 48.0 °F 38% 29.91 in 10.0 mi West 9.2 mph 19.6 mph N/A   Clear
2:52 PM 73.9 °F 51.1 °F 45% 29.90 in 10.0 mi West 10.4 mph 19.6 mph N/A   Clear
3:52 PM 75.0 °F 54.0 °F 48% 29.90 in 9.0 mi WNW 11.5 mph 20.7 mph N/A   Clear
4:52 PM 75.0 °F 51.1 °F 43% 29.90 in 10.0 mi West 8.1 mph - N/A   Clear
5:52 PM 73.9 °F 48.0 °F 40% 29.90 in 10.0 mi West 9.2 mph 16.1 mph N/A   Clear
6:52 PM 69.1 °F 54.0 °F 58% 29.91 in 10.0 mi Variable 3.5 mph - N/A   Clear
7:52 PM 69.1 °F 44.1 °F 40% 29.93 in 10.0 mi Calm Calm - N/A   Clear
8:52 PM 66.0 °F 48.0 °F 52% 29.95 in 10.0 mi North 3.5 mph - N/A   Clear
9:52 PM 57.9 °F 46.0 °F 65% 29.97 in 10.0 mi Calm Calm - N/A   Clear
10:52 PM 57.0 °F 46.0 °F 67% 29.98 in 10.0 mi Calm Calm - N/A   Clear
11:52 PM 54.0 °F 45.0 °F 72% 29.98 in 10.0 mi Calm Calm - N/A   Clear